O3B FM15 (43231 NORAD) Tracking and Keplerian Element Data

This shows tracking and keplerian element data for the satellite.

Feedback or suggestion? Click here.




ElementValue
Catalog43231
NameO3B FM15
Epoch Orbit1252
Epoch Day319.00662655
Epoch Year2018
RAAN7.4067
Inclination0.0386
Eccentricity0.0002759
Argument of Perigee226.8724
Mean Anonmoly125.7011
Mean Motion5.00115525
Decay Rate-2.5E-07
L11 43231U 18024A 18319.00662655 -.00000025 00000-0 00000-0 0 9998
L22 43231 0.0386 7.4067 0002759 226.8724 125.7011 5.00115525 12521

Live tracking and technical data element details for O3B FM15 (NORAD 43231). O3B FM15 can be tracked NOW for your location showing map with azimuth and elevation plus other details from your city location.

Track the satellite on the map from your city or location and see movement details for azimuth, elevation, latitude, longitude, range, height, and movement on the map or in text.







IsCatalogInMostPopularTable: catalog: 43231, numindb: 80
Update: records affected: 1



GetName: 43231 O3B FM15

Hit Count: updated at: Sat, 17 Nov 2018 02:22:01 GMT